Shaw AFB, SC

8:39 AM EDT on April 23, 2018 (GMT -0400)
Shaw Air Force Base

Weather History for KSSC - November, 2013

Change the Weather History Date:

Tuesday, November 5, 2013

  Actual Average Record
Temperature  
Mean Temperature 50 °F -  
Max Temperature 62 °F 68 °F 84 °F (2003)
Min Temperature 38 °F 44 °F 28 °F (2006)
Degree Days  
Heating Degree Days 15    
Moisture  
Dew Point 45 °F    
Average Humidity 77    
Maximum Humidity 94    
Minimum Humidity 59    
Precipitation  
Precipitation 0.00 in - - ()
Sea Level Pressure  
Sea Level Pressure 30.42 in    
Wind  
Wind Speed 10 mph (NNE)    
Max Wind Speed 17 mph    
Max Gust Speed -    
Visibility 10 miles    
Events Rain    
Averages and records for this station are not official NWS values.
T = Trace of Precipitation, MM = Missing Value Source: NWS Daily Summary

Daily Weather History Graph

Daily Weather History Graph

Search for Another Location

Airport or City:

Astronomy

Nov. 05, 2013 Rise Set
Actual Time 6:45 AM EST 5:25 PM EST
Civil Twilight 6:19 AM EST 5:51 PM EST
Nautical Twilight 5:49 AM EST 6:21 PM EST
Astronomical Twilight 5:20 AM EST 6:50 PM EST
Moon 8:54 AM EST (11/5) 7:29 PM EST (11/5)
Length of Visible Light 11h 32m
Length of Day
10h 40m
Waxing Crescent, 6% of the Moon is Illuminated
Nov 5
Waxing Crescent
Nov 10
First Quarter
Nov 17
Full
Nov 25
Last Quarter
Dec 2
New

Hourly Weather History & Observations

Time (EST) Temp. Windchill Dew Point Humidity Pressure Visibility Wind Dir Wind Speed Gust Speed Precip Events Conditions
12:58 AM 39.4 °F 34.5 °F 32.7 °F 77% 30.47 in 10.0 mi NNE 6.9 mph - N/A   Clear
1:58 AM 38.3 °F 32.5 °F 32.7 °F 80% 30.45 in 10.0 mi NNE 8.1 mph - N/A   Clear
2:58 AM 40.6 °F 36.0 °F 33.6 °F 76% 30.45 in 10.0 mi NNE 6.9 mph - N/A   Clear
3:58 AM 40.3 °F 33.9 °F 34.2 °F 79% 30.44 in 10.0 mi NNE 10.4 mph - N/A   Clear
4:58 AM 39.9 °F 33.4 °F 34.3 °F 80% 30.45 in 10.0 mi North 10.4 mph - N/A   Clear
5:58 AM 39.0 °F 34.0 °F 34.3 °F 83% 30.46 in 10.0 mi NNE 6.9 mph - N/A   Clear
6:58 AM 39.4 °F 33.2 °F 35.1 °F 84% 30.47 in 10.0 mi NNE 9.2 mph - N/A   Clear
7:58 AM 43.0 °F 36.4 °F 37.0 °F 80% 30.47 in 10.0 mi NNE 12.7 mph - N/A   Clear
8:51 AM 48.2 °F - 39.2 °F 71% 30.47 in 10.0 mi NE 17.3 mph - N/A   Mostly Cloudy
8:58 AM 47.5 °F - 39.6 °F 74% 30.48 in 10.0 mi NE 13.8 mph - N/A   Overcast
9:58 AM 50.9 °F - 42.4 °F 73% 30.47 in 10.0 mi NNE 12.7 mph - N/A   Overcast
10:58 AM 54.0 °F - 44.8 °F 71% 30.47 in 10.0 mi NNE 11.5 mph - N/A   Overcast
11:38 AM 55.4 °F - 46.4 °F 72% 30.44 in 10.0 mi NNE 13.8 mph - N/A   Mostly Cloudy
11:58 AM 56.5 °F - 45.9 °F 68% 30.45 in 10.0 mi NNE 12.7 mph - N/A   Scattered Clouds
12:58 PM 60.4 °F - 47.1 °F 61% 30.41 in 10.0 mi NNE 15.0 mph - N/A   Clear
1:58 PM 62.8 °F - 48.4 °F 59% 30.39 in 10.0 mi ENE 12.7 mph - N/A   Scattered Clouds
2:53 PM 62.6 °F - 50.0 °F 63% 30.37 in 10.0 mi NE 9.2 mph - N/A   Overcast
2:58 PM 62.8 °F - 49.6 °F 62% 30.39 in 10.0 mi NE 9.2 mph - N/A   Overcast
2:59 PM 62.6 °F - 50.0 °F 63% 30.38 in 10.0 mi NE 9.2 mph - N/A   Light Drizzle
3:07 PM 62.6 °F - 50.0 °F 63% 30.37 in 10.0 mi NE 10.4 mph - N/A   Overcast
3:42 PM 60.8 °F - 50.0 °F 68% 30.39 in 10.0 mi NNE 11.5 mph - N/A   Overcast
3:44 PM 60.8 °F - 50.0 °F 68% 30.39 in 10.0 mi NNE 13.8 mph - N/A   Light Drizzle
3:49 PM 59.0 °F - 53.6 °F 82% 30.39 in 9.0 mi NNE 11.5 mph - N/A Rain Light Rain
3:58 PM 58.3 °F - 52.2 °F 80% 30.39 in 10.0 mi North 11.5 mph - 0.00 in   Light Drizzle
4:18 PM 57.2 °F - 53.6 °F 88% 30.39 in 10.0 mi NNE 11.5 mph - N/A   Light Drizzle
4:43 PM 55.4 °F - 53.6 °F 94% 30.38 in 9.0 mi NNE 11.5 mph - N/A   Overcast
4:58 PM 55.2 °F - 52.7 °F 91% 30.39 in 10.0 mi NNE 11.5 mph - 0.00 in   Overcast
5:18 PM 55.4 °F - 51.8 °F 88% 30.39 in 10.0 mi NNE 8.1 mph - N/A   Overcast
5:58 PM 54.9 °F - 51.8 °F 89% 30.40 in 10.0 mi North 6.9 mph - N/A   Overcast
6:58 PM 54.7 °F - 51.3 °F 88% 30.40 in 10.0 mi NNE 9.2 mph - N/A   Overcast
7:58 PM 54.0 °F - 49.8 °F 86% 30.40 in 10.0 mi NNE 10.4 mph - N/A   Mostly Cloudy
8:58 PM 52.7 °F - 48.6 °F 86% 30.40 in 10.0 mi NNE 8.1 mph - N/A   Clear
9:58 PM 51.3 °F - 47.7 °F 87% 30.39 in 10.0 mi NE 8.1 mph - N/A   Clear
10:58 PM 51.4 °F - 48.0 °F 88% 30.38 in 10.0 mi NNE 8.1 mph - N/A   Clear
11:58 PM 52.5 °F - 48.6 °F 86% 30.37 in 10.0 mi NNE 12.7 mph - N/A   Clear